Wind_Speed
7 6 6 6 5 5 4 3 3 3 3 4 3 3 4 4 4 4 4 4 5 6 6 7 7 7 8 9 9 9 10 10 10 10 10 10 9 9 8 8 7 7 6
8 7 7 6 5 3 3 3 3 3 3 4 4 3 4 4 4 5 5 4 5 5 6 6 7 8 9 9 10 10 10 11 11 11 10 11 11 11 10 10 10 9 9
8 7 6 6 4 3 3 3 3 3 3 3 3 3 3 4 4 4 5 4 5 5 6 6 7 8 9 9 9 10 11 11 11 12 12 12 12 13 12 12 12 12 11
8 8 7 6 5 4 3 3 3 2 2 2 2 2 2 2 2 3 4 4 4 5 5 6 6 7 9 9 9 10 10 11 12 12 13 13 13 14 14 14 14 14 14
8 8 8 7 5 4 4 3 2 2 2 1 1 1 1 1 1 2 2 3 3 4 5 5 6 7 8 9 10 10 11 11 12 12 13 13 14 15 16 16 16 16 16
9 8 8 7 6 5 4 3 2 2 1 1 1 0 0 1 1 1 1 2 3 4 5 6 6 7 8 8 9 10 11 11 12 13 13 14 14 15 15 17 18 18 18
10 9 8 7 6 5 4 3 2 2 2 1 1 1 0 1 1 1 2 2 2 3 4 5 6 7 8 9 9 10 11 12 12 13 14 14 15 15 16 16 17 18 19
11 10 9 8 7 5 4 4 3 2 2 1 1 1 1 1 2 3 3 3 3 3 4 4 5 5 6 8 8 9 10 11 12 12 13 14 15 16 16 17 18 19 19
13 11 10 9 7 6 5 4 3 3 2 2 1 2 2 2 2 3 3 3 3 4 4 5 6 6 7 8 8 9 10 11 12 13 13 14 14 15 16 17 18 19 19
14 12 11 10 8 7 5 5 4 3 3 2 2 3 3 3 3 4 4 5 5 5 6 6 7 7 8 8 9 9 10 11 12 13 14 15 15 16 16 17 18 19 21
14 13 12 11 9 8 7 6 5 5 4 4 3 4 4 5 5 5 6 6 7 7 7 7 8 8 9 9 10 10 10 11 12 13 14 15 16 16 17 17 18 19 20
15 14 13 11 10 8 8 7 6 6 5 5 5 5 5 6 7 7 7 8 8 9 9 9 10 10 11 11 12 12 12 13 13 14 15 15 16 17 18 18 19 20 20
16 15 14 12 10 9 9 8 8 8 8 8 8 7 8 8 9 9 9 10 10 10 11 11 12 12 12 13 13 14 14 14 15 15 16 16 17 18 19 20 21 21 22
16 15 14 13 12 11 10 10 10 10 11 11 11 11 11 11 11 12 12 12 13 13 13 13 14 14 14 15 15 16 16 17 17 17 18 18 18 18 19 20 21 22 23
17 16 16 15 14 13 13 13 13 13 14 13 13 14 14 14 14 14 15 15 16 16 17 17 17 17 17 17 17 18 18 19 19 20 20 20 20 20 21 21 22 22 23
18 18 18 17 16 16 16 16 16 16 16 16 16 17 17 18 18 18 18 18 19 19 19 20 20 20 20 20 20 21 21 21 21 22 22 22 22 22 22 22 23 24 24
19 20 20 19 19 19 19 19 19 19 20 20 20 20 20 21 21 22 21 21 22 22 22 22 23 23 24 24 23 24 24 24 24 24 25 25 25 24 24 24 25 25 26
20 20 21 21 21 21 21 21 22 22 23 23 23 23 24 24 24 24 24 24 24 24 25 25 25 26 27 27 27 27 27 27 27 27 27 27 27 27 27 27 27 27 28
21 21 22 21 22 22 22 23 24 25 26 26 26 26 27 27 27 27 27 27 27 28 28 28 28 28 29 29 30 30 30 30 30 30 30 30 30 30 31 30 30 30 30
22 23 23 23 23 24 24 25 26 27 28 28 29 29 29 30 30 30 30 30 30 31 31 32 32 31 31 32 33 33 33 33 33 33 34 34 34 34 34 33 33 33 33
23 24 24 25 26 26 27 28 29 30 30 30 31 32 32 33 32 33 33 33 34 34 34 35 35 35 35 36 36 36 36 36 37 37 37 37 37 37 37 37 36 36 36
24 26 27 27 28 29 30 30 30 31 32 33 33 34 35 36 36 37 37 36 36 36 37 37 37 38 38 39 39 39 39 39 39 40 40 40 41 40 40 39 39 39 40
26 27 28 29 31 32 33 33 34 35 35 35 35 36 37 38 39 38 38 38 37 38 39 39 40 40 41 42 42 42 42 42 42 43 43 42 43 43 43 42 42 42 42
28 30 31 32 32 34 35 37 38 38 37 37 38 39 39 40 41 41 40 40 41 41 42 42 42 43 44 45 45 45 45 44 44 44 45 44 44 45 46 46 46 46 46
30 31 32 33 34 34 35 37 38 38 39 39 39 40 41 41 42 42 43 42 43 43 44 44 44 45 46 47 48 48 47 47 46 46 47 47 47 48 48 48 49 49 49
32 32 31 33 34 35 37 38 39 40 41 41 42 42 43 43 44 45 45 45 45 46 46 46 46 47 48 48 49 50 50 50 49 48 48 50 50 51 50 49 50 51 52
Wind_Direction
257 269 276 285 294 305 313 319 326 322 311 299 300 299 285 268 265 275 272 274 266 260 254 256 254 250 252 244 241 242 241 242 242 240 240 237 235 235 237 237 235 237 239
252 260 271 271 279 293 303 304 313 320 309 304 299 295 281 268 267 264 266 272 270 261 256 256 254 252 253 251 248 246 245 246 248 247 245 243 241 240 240 241 242 242 244
245 250 258 258 259 264 278 287 302 320 319 317 303 290 280 275 269 258 261 266 265 262 261 262 259 256 256 255 254 252 251 252 249 249 247 245 245 243 243 243 243 244 245
240 243 242 237 237 246 261 278 295 316 333 340 330 304 288 284 271 258 266 267 268 270 269 273 271 266 266 265 263 261 260 257 252 251 249 249 248 246 246 246 246 245 246
234 234 229 227 229 240 251 267 282 314 328 339 339 307 281 295 293 279 268 264 267 272 274 277 274 274 274 272 269 268 266 263 258 256 254 252 252 251 250 250 250 250 249
227 225 224 227 227 231 241 247 263 289 294 316 348 23 226 292 306 298 283 272 271 278 281 278 278 277 277 275 274 276 274 270 265 263 261 259 257 257 255 254 253 253 252
217 216 219 223 220 222 231 238 246 267 277 296 354 25 340 299 289 282 284 288 294 290 286 286 284 283 280 278 277 278 277 276 272 269 266 265 263 261 260 259 256 256 256
208 209 213 216 216 217 225 228 233 244 260 284 314 330 324 287 278 287 287 290 292 296 301 303 300 296 291 288 286 284 280 279 278 277 272 271 269 267 264 261 260 260 260
205 208 211 212 210 210 216 225 234 237 240 257 283 305 315 308 292 297 298 295 292 292 297 300 302 300 296 294 292 291 288 283 280 280 277 275 272 269 266 264 263 262 262
205 208 210 210 209 210 217 228 239 247 252 268 284 296 298 299 298 294 296 296 299 300 300 301 301 299 298 297 295 294 292 289 286 284 281 278 275 272 269 267 266 266 263
208 209 208 211 213 215 223 235 240 244 251 264 279 292 299 300 300 298 297 298 299 299 300 301 302 302 302 300 297 296 295 293 289 287 284 282 279 276 273 270 268 268 266
209 206 208 213 216 221 229 239 241 242 248 260 273 285 294 296 295 294 293 293 293 294 294 296 299 300 299 298 298 296 295 294 292 289 287 284 282 279 276 273 270 268 266
207 208 213 218 223 229 236 243 246 249 254 261 268 276 283 287 290 289 289 289 290 290 291 292 295 297 298 297 296 295 294 294 294 292 289 286 284 281 278 275 272 270 268
210 213 218 224 228 235 242 247 252 258 261 265 269 274 278 282 285 285 286 286 286 287 288 289 291 292 293 294 293 293 293 293 293 292 291 289 287 284 281 278 275 273 271
216 219 224 230 235 241 247 251 255 262 263 265 269 273 275 279 282 282 283 283 283 283 284 286 287 288 289 291 292 291 291 291 291 291 291 290 288 286 284 281 279 277 275
222 226 230 235 241 247 249 253 257 262 264 265 269 273 275 278 280 282 282 282 282 282 282 283 284 284 285 287 288 290 290 290 290 290 290 289 288 287 285 283 280 279 277
230 233 238 242 247 250 252 256 260 264 266 267 271 273 275 277 278 280 281 281 281 281 280 280 281 282 283 284 286 287 288 288 288 288 287 287 287 286 285 283 281 280 279
235 239 243 247 250 253 256 259 263 267 268 270 272 273 274 275 277 278 279 280 282 282 281 280 279 281 282 282 283 284 285 285 286 286 286 285 285 285 285 283 282 281 279
241 244 247 250 254 258 261 263 265 269 270 271 273 274 274 275 276 277 278 279 280 281 280 280 279 279 280 280 282 282 283 284 284 284 283 283 283 282 282 283 282 281 280
246 249 251 254 257 260 262 264 267 269 270 272 273 274 274 275 277 279 280 280 280 280 279 279 278 279 279 280 280 280 281 282 283 282 282 282 282 282 281 281 281 280 279
250 253 254 257 259 263 265 268 268 269 271 273 275 274 274 275 276 278 279 280 280 279 278 278 278 278 278 279 279 279 280 281 282 282 281 280 281 281 281 281 280 280 279
255 256 259 262 264 266 268 270 271 272 273 274 275 277 276 275 275 277 278 279 279 278 278 278 278 277 277 278 279 280 280 280 280 279 280 280 280 280 279 279 279 279 278
261 262 263 265 267 268 269 271 273 273 273 274 275 276 277 277 278 277 277 278 278 278 279 279 278 278 278 278 278 279 280 280 280 279 278 278 279 279 278 278 278 278 277
264 266 267 266 267 268 268 269 270 272 273 274 275 274 275 276 278 277 277 277 277 277 278 279 279 279 278 278 279 279 280 279 279 279 278 278 277 277 277 277 277 277 276
269 271 270 269 271 272 273 273 271 272 272 273 275 275 277 277 277 278 278 278 278 278 279 279 280 279 279 279 279 279 280 280 279 278 279 279 278 277 277 277 277 276 276
272 273 275 276 276 276 276 276 274 274 274 273 274 275 275 277 279 279 278 278 278 278 278 278 279 280 281 281 281 280 280 280 279 278 278 278 278 278 277 277 277 277 276
Height
5882 5883 5884 5884 5885 5885 5886 5886 5886 5887 5887 5887 5886 5886 5886 5887 5887 5888 5888 5888 5889 5890 5890 5891 5891 5892 5893 5893 5894 5895 5896 5897 5898 5898 5899 5900 5901 5902 5903 5904 5904 5905 5906
5881 5882 5883 5883 5884 5884 5885 5885 5885 5886 5886 5886 5886 5885 5886 5886 5886 5886 5887 5887 5887 5888 5888 5889 5890 5890 5891 5891 5892 5893 5893 5894 5895 5896 5897 5898 5899 5900 5901 5902 5903 5903 5904
5879 5880 5881 5882 5883 5883 5884 5884 5885 5885 5885 5885 5884 5884 5884 5885 5885 5885 5886 5886 5886 5887 5887 5887 5888 5888 5889 5889 5890 5890 5891 5891 5892 5893 5894 5895 5896 5897 5898 5899 5900 5901 5902
5878 5879 5880 5881 5882 5882 5883 5883 5884 5884 5884 5884 5883 5884 5884 5884 5884 5884 5885 5885 5885 5885 5886 5886 5886 5886 5887 5887 5887 5888 5888 5889 5889 5890 5891 5892 5893 5894 5895 5896 5897 5898 5899
5876 5878 5879 5880 5881 5882 5882 5883 5883 5883 5883 5883 5883 5883 5883 5883 5883 5883 5884 5884 5884 5884 5884 5884 5884 5885 5885 5885 5885 5886 5886 5886 5887 5887 5888 5889 5890 5891 5892 5893 5894 5895 5896
5875 5876 5878 5879 5880 5881 5881 5882 5882 5882 5882 5882 5882 5883 5883 5883 5883 5883 5883 5883 5883 5883 5883 5883 5883 5883 5883 5883 5884 5883 5883 5884 5884 5885 5885 5886 5886 5887 5888 5889 5890 5891 5892
5873 5875 5876 5878 5879 5880 5880 5881 5881 5881 5882 5882 5882 5882 5882 5883 5883 5883 5882 5882 5882 5882 5881 5881 5881 5881 5881 5881 5881 5881 5881 5881 5881 5882 5882 5883 5883 5884 5885 5885 5886 5887 5888
5872 5874 5875 5877 5878 5879 5880 5880 5881 5881 5882 5882 5882 5882 5882 5883 5882 5882 5882 5882 5881 5881 5880 5880 5880 5880 5880 5879 5879 5879 5879 5879 5879 5879 5879 5879 5879 5880 5881 5881 5882 5883 5884
5870 5872 5874 5875 5877 5878 5879 5880 5880 5881 5881 5881 5881 5882 5882 5881 5881 5881 5881 5881 5880 5880 5879 5879 5879 5878 5878 5877 5877 5877 5877 5877 5876 5876 5876 5876 5876 5876 5877 5877 5878 5879 5879
5869 5871 5873 5874 5876 5877 5878 5879 5879 5880 5880 5880 5881 5881 5881 5881 5881 5881 5880 5880 5879 5879 5878 5878 5877 5877 5876 5876 5875 5875 5874 5874 5874 5873 5873 5872 5872 5872 5873 5873 5874 5874 5875
5867 5869 5871 5873 5874 5876 5877 5878 5878 5879 5879 5880 5880 5880 5880 5880 5879 5879 5879 5879 5878 5877 5877 5876 5876 5875 5875 5874 5873 5873 5872 5871 5871 5870 5870 5869 5869 5869 5869 5869 5869 5869 5870
5865 5867 5869 5871 5873 5874 5875 5876 5877 5878 5878 5879 5879 5879 5879 5878 5878 5878 5877 5877 5876 5876 5875 5874 5874 5873 5872 5872 5871 5870 5869 5868 5868 5867 5866 5866 5865 5865 5865 5864 5864 5864 5865
5863 5865 5868 5870 5871 5873 5874 5875 5876 5876 5877 5877 5878 5877 5877 5877 5876 5876 5875 5875 5874 5873 5873 5872 5871 5870 5870 5869 5868 5867 5866 5865 5864 5863 5863 5862 5861 5860 5860 5860 5860 5859 5859
5861 5864 5866 5868 5869 5870 5871 5872 5873 5874 5875 5875 5875 5875 5875 5874 5874 5873 5873 5872 5871 5871 5870 5869 5868 5867 5866 5865 5864 5863 5863 5862 5861 5860 5859 5858 5857 5856 5855 5855 5854 5854 5854
5859 5861 5864 5866 5867 5868 5869 5870 5870 5871 5872 5872 5872 5872 5872 5871 5871 5870 5870 5869 5869 5867 5867 5865 5864 5863 5862 5861 5860 5859 5858 5857 5856 5855 5854 5853 5852 5851 5850 5849 5849 5848 5848
5857 5859 5861 5863 5864 5864 5865 5866 5867 5868 5868 5868 5868 5868 5868 5867 5867 5866 5866 5865 5864 5864 5862 5861 5860 5859 5858 5857 5856 5855 5853 5852 5851 5850 5849 5848 5847 5846 5845 5844 5843 5842 5842
5854 5856 5858 5859 5860 5860 5861 5862 5863 5863 5864 5864 5864 5863 5863 5863 5862 5861 5861 5860 5859 5858 5858 5857 5855 5854 5853 5852 5850 5849 5848 5847 5845 5844 5843 5842 5841 5840 5839 5838 5837 5836 5835
5850 5852 5854 5855 5855 5856 5857 5858 5858 5859 5859 5859 5858 5858 5857 5857 5856 5856 5855 5854 5853 5852 5852 5851 5849 5848 5847 5846 5844 5843 5841 5840 5839 5837 5836 5835 5834 5832 5832 5831 5830 5829 5828
5846 5848 5849 5850 5850 5851 5852 5852 5853 5853 5853 5852 5852 5851 5851 5850 5849 5849 5848 5847 5846 5845 5844 5843 5842 5841 5840 5838 5837 5836 5834 5833 5831 5830 5828 5827 5826 5825 5824 5823 5822 5821 5820
5841 5843 5844 5844 5845 5846 5846 5846 5846 5846 5846 5845 5845 5844 5844 5843 5842 5841 5841 5840 5839 5837 5836 5835 5833 5832 5831 5830 5829 5827 5826 5824 5823 5821 5820 5818 5817 5816 5814 5813 5813 5812 5811
5836 5837 5838 5838 5839 5839 5839 5839 5839 5839 5838 5838 5837 5836 5835 5834 5834 5833 5832 5831 5830 5828 5827 5826 5824 5823 5822 5820 5819 5818 5817 5815 5814 5811 5810 5809 5807 5806 5804 5803 5802 5801 5800
5830 5831 5832 5832 5832 5832 5832 5832 5832 5831 5830 5829 5829 5828 5827 5825 5824 5823 5822 5821 5820 5818 5817 5816 5815 5814 5812 5810 5808 5807 5806 5805 5804 5802 5799 5798 5796 5795 5794 5792 5791 5790 5789
5824 5824 5825 5825 5825 5824 5824 5824 5823 5822 5821 5820 5819 5818 5817 5816 5814 5812 5811 5810 5809 5808 5807 5805 5804 5802 5801 5799 5797 5796 5794 5793 5791 5789 5787 5787 5784 5783 5781 5780 5779 5778 5777
5817 5817 5816 5816 5816 5815 5814 5814 5813 5812 5811 5810 5809 5807 5806 5805 5803 5802 5801 5799 5798 5796 5794 5793 5792 5790 5788 5786 5784 5783 5781 5780 5779 5777 5774 5774 5772 5770 5769 5767 5766 5764 5763
5809 5808 5807 5807 5806 5805 5804 5803 5802 5801 5801 5800 5798 5797 5795 5794 5792 5790 5789 5788 5786 5784 5782 5780 5779 5777 5775 5773 5770 5769 5768 5766 5766 5765 5761 5759 5758 5756 5755 5754 5752 5750 5749
5801 5800 5799 5798 5796 5795 5795 5793 5792 5791 5789 5788 5787 5785 5784 5782 5780 5778 5777 5775 5774 5772 5769 5767 5765 5764 5761 5759 5756 5755 5753 5751 5750 5750 5747 5744 5743 5740 5741 5740 5737 5735 5733